Stations météo

réclame
Mon MeteoGroup
Koksijde, Belgique (6400): Température de l'air & dewpoint: 12.02.2019 17:00:00 - 18.02.2019 17:00:00 (CET)Koksijde, Belgique (6400): Vitesse du vent & gusts: 12.02.2019 17:00:00 - 18.02.2019 17:00:00 (CET)Koksijde, Belgique (6400): Direction du vent: 12.02.2019 17:00:00 - 18.02.2019 17:00:00 (CET)Koksijde, Belgique (6400): reduced air pressure: 12.02.2019 17:00:00 - 18.02.2019 17:00:00 (CET)Koksijde, Belgique (6400): visibility: 12.02.2019 17:00:00 - 18.02.2019 17:00:00 (CET)
Date & Time tt [°C] td [°C] ff [km/h] ff [knt] fx [km/h] fx [knt] dd ppp [hPa] vv [km]
18.02.2019 17:00:00 9,3 6,8 14 8 29 16 WNW 1015,2 8
18.02.2019 16:00:00 10,3 6,7 18 10 - - WNW 1015,6 15
18.02.2019 15:00:00 13,6 7,6 11 6 18 10 SSW 1015,3 15
18.02.2019 14:00:00 13,2 7,7 14 8 22 12 SSW 1015,8 19
18.02.2019 13:00:00 12,4 7,2 11 6 - - SSW 1016,6 19
18.02.2019 12:00:00 11,3 6,6 11 6 14 8 SW 1017,3 19
18.02.2019 11:00:00 8,9 5,2 11 6 18 10 SSW 1017,7 15
18.02.2019 10:00:00 6,8 3,7 14 8 - - SSW 1018,0 11
18.02.2019 09:00:00 4,8 2,4 4 2 14 8 N 1018,0 11
18.02.2019 08:00:00 3,0 1,1 4 2 7 4 N 1017,8 11
18.02.2019 07:00:00 3,6 1,1 4 2 - - N 1017,6 11
18.02.2019 06:00:00 3,6 1,3 4 2 7 4 - 1017,8 7
18.02.2019 05:00:00 3,7 1,4 2 1 7 4 - 1018,1 7
18.02.2019 04:00:00 4,5 1,5 7 4 - - SSW 1018,2 10
18.02.2019 03:00:00 3,7 1,6 7 4 7 4 S 1018,5 8
18.02.2019 02:00:00 4,9 2,1 7 4 7 4 SW 1018,6 10
18.02.2019 01:00:00 5,6 2,2 7 4 - - SSW 1018,3 10
18.02.2019 00:00:00 7,3 2,6 4 2 7 4 N 1018,3 14
17.02.2019 23:00:00 7,7 3,1 4 2 7 4 N 1018,6 12
17.02.2019 22:00:00 8,8 3,3 4 2 - - N 1018,7 12
17.02.2019 21:00:00 8,1 3,5 4 2 11 6 N 1018,7 12
17.02.2019 20:00:00 8,7 4,0 11 6 11 6 S 1018,6 14
17.02.2019 19:00:00 9,8 4,3 11 6 - - SSW 1018,3 14
17.02.2019 18:00:00 11,3 4,6 14 8 22 12 S 1017,6 13
17.02.2019 17:00:00 13,6 4,2 14 8 22 12 S 1017,3 15
17.02.2019 16:00:00 14,0 4,1 18 10 - - S 1017,6 15
17.02.2019 15:00:00 14,1 4,2 18 10 36 19 S 1017,3 15
17.02.2019 14:00:00 13,8 3,9 22 12 36 19 S 1017,3 15
17.02.2019 13:00:00 13,1 3,1 22 12 - - S 1018,0 11
17.02.2019 12:00:00 11,8 3,7 14 8 22 12 SSE 1018,3 18
17.02.2019 11:00:00 9,0 2,5 14 8 25 14 SSE 1018,8 15
17.02.2019 10:00:00 6,9 2,0 21 11 - - SSE 1019,3 7
17.02.2019 09:00:00 5,7 1,7 14 8 25 14 SSE 1019,5 9
17.02.2019 08:00:00 4,9 1,6 7 4 14 8 SE 1019,7 7
17.02.2019 07:00:00 4,8 1,7 4 2 - - N 1019,8 6
17.02.2019 06:00:00 4,6 1,7 14 8 18 10 SSE 1020,2 6
17.02.2019 05:00:00 2,9 1,0 4 2 7 4 N 1020,8 4,9
17.02.2019 04:00:00 3,2 0,8 4 2 - - N 1021,6 4,0
17.02.2019 03:00:00 4,7 2,2 7 4 11 6 SSE 1022,0 5
17.02.2019 02:00:00 1,9 0,5 4 2 7 4 N 1022,3 3,3
17.02.2019 01:00:00 2,9 1,5 4 2 - - N 1023,1 2,7
17.02.2019 00:00:00 4,2 2,5 4 2 11 6 N 1023,5 3,6
16.02.2019 23:00:00 3,4 1,9 4 2 7 4 N 1023,7 2,8
16.02.2019 22:00:00 3,5 1,5 4 2 - - N 1024,2 3,3
16.02.2019 21:00:00 7,3 3,8 7 4 7 4 S 1024,0 7
16.02.2019 20:00:00 7,9 4,4 7 4 7 4 S 1024,5 7
16.02.2019 19:00:00 8,8 4,4 4 2 - - N 1024,5 8
16.02.2019 18:00:00 10,8 4,9 11 6 18 10 S 1024,2 12
16.02.2019 17:00:00 12,4 5,3 11 6 14 8 S 1024,5 12
16.02.2019 16:00:00 13,0 5,4 11 6 - - S 1024,9 10
16.02.2019 15:00:00 12,6 5,6 11 6 18 10 SSW 1025,2 10
16.02.2019 14:00:00 12,4 6,1 14 8 18 10 SSW 1025,7 12
16.02.2019 13:00:00 11,5 5,3 14 8 - - SW 1026,0 8
16.02.2019 12:00:00 10,3 4,7 14 8 18 10 SSW 1026,0 13
16.02.2019 11:00:00 8,0 3,6 11 6 14 8 SSW 1026,0 8
16.02.2019 10:00:00 5,0 1,7 7 4 - - SSW 1026,0 7
16.02.2019 09:00:00 3,0 0,7 4 2 7 4 N 1026,0 9
16.02.2019 08:00:00 2,5 -0,2 4 2 7 4 N 1025,4 8
16.02.2019 07:00:00 2,7 0,3 4 2 - - N 1024,9 8
16.02.2019 06:00:00 3,2 0,5 7 4 11 6 SW 1024,7 8
16.02.2019 05:00:00 3,7 1,4 4 2 11 6 N 1024,4 7
16.02.2019 04:00:00 3,3 1,2 4 2 - - N 1024,7 6
16.02.2019 03:00:00 3,5 1,4 4 2 11 6 N 1025,2 7
16.02.2019 02:00:00 4,0 2,1 4 2 7 4 N 1025,7 6
16.02.2019 01:00:00 3,1 1,6 7 4 - - SSW 1025,9 4,9
16.02.2019 00:00:00 3,5 1,9 7 4 11 6 SW 1026,0 4,2
15.02.2019 23:00:00 4,9 2,5 4 2 11 6 N 1026,0 6
15.02.2019 22:00:00 5,2 2,2 4 2 - - N 1026,0 7
15.02.2019 21:00:00 7,2 3,1 4 2 18 10 N 1026,5 8
15.02.2019 20:00:00 8,3 3,4 14 8 18 10 S 1026,7 12
15.02.2019 19:00:00 9,6 3,5 11 6 - - S 1026,9 11
15.02.2019 18:00:00 10,7 4,3 11 6 14 8 S 1026,9 12
15.02.2019 17:00:00 12,8 4,0 11 6 22 12 SSE 1027,0 20
15.02.2019 16:00:00 13,1 3,8 14 8 - - SSE 1027,5 20
15.02.2019 15:00:00 13,2 4,1 14 8 22 12 S 1028,2 20
15.02.2019 14:00:00 12,3 3,9 14 8 18 10 S 1028,7 20
15.02.2019 13:00:00 11,0 3,2 11 6 - - SSE 1029,5 20
15.02.2019 12:00:00 9,3 2,1 14 8 18 10 SSE 1030,0 20
15.02.2019 11:00:00 7,6 1,6 11 6 14 8 SE 1030,4 16
15.02.2019 10:00:00 5,6 0,4 7 4 - - SSE 1030,7 14
15.02.2019 09:00:00 4,5 -0,1 11 6 14 8 SSE 1030,7 10
15.02.2019 08:00:00 2,9 0,0 7 4 14 8 SE 1030,7 10
15.02.2019 07:00:00 1,0 -0,7 8 4 - - SE 1030,5 10
15.02.2019 06:00:00 1,1 -0,5 4 2 7 4 N 1030,5 5
15.02.2019 05:00:00 1,1 -0,4 7 4 11 6 ESE 1030,7 4,8
15.02.2019 04:00:00 2,5 0,3 7 4 - - SE 1030,9 6
15.02.2019 03:00:00 3,2 1,3 11 6 11 6 SE 1031,2 6
15.02.2019 02:00:00 1,7 0,1 7 4 11 6 ESE 1031,7 4,7
15.02.2019 01:00:00 2,7 0,7 4 2 - - N 1032,0 6
15.02.2019 00:00:00 2,7 0,7 7 4 11 6 ESE 1032,2 6
14.02.2019 23:00:00 3,7 1,1 4 2 7 4 N 1032,2 6
14.02.2019 22:00:00 3,2 1,1 4 2 - - N 1032,2 5
14.02.2019 21:00:00 4,2 2,0 4 2 7 4 N 1032,2 5
14.02.2019 20:00:00 5,6 2,6 4 2 7 4 N 1032,5 8
14.02.2019 19:00:00 6,7 2,6 4 2 - - N 1032,7 8
14.02.2019 18:00:00 9,0 3,4 7 4 14 8 SSE 1032,7 9
14.02.2019 17:00:00 10,9 3,8 11 6 18 10 SSE 1032,7 14
14.02.2019 16:00:00 11,8 3,7 14 8 - - SSE 1033,2 15
14.02.2019 15:00:00 11,8 3,1 11 6 18 10 SSE 1033,4 15
14.02.2019 14:00:00 11,1 3,8 11 6 18 10 S 1034,0 20
14.02.2019 13:00:00 9,4 2,8 11 6 - - S 1034,7 14
14.02.2019 12:00:00 8,1 2,6 7 4 14 8 SSE 1035,2 14
14.02.2019 11:00:00 5,9 1,8 7 4 14 8 S 1035,2 10
14.02.2019 10:00:00 3,8 0,8 7 4 - - SSE 1035,0 10
14.02.2019 09:00:00 1,1 0,0 7 4 7 4 ESE 1035,2 7
14.02.2019 08:00:00 -0,2 -1,4 4 2 7 4 N 1034,9 6
14.02.2019 07:00:00 0,5 -0,7 7 4 - - SSE 1034,7 6
14.02.2019 06:00:00 0,1 -1,1 4 2 7 4 N 1034,7 3,2
14.02.2019 05:00:00 1,0 -0,2 4 2 11 6 N 1034,2 4,4
14.02.2019 04:00:00 0,6 -0,2 4 2 - - N 1034,5 4,0
14.02.2019 03:00:00 0,8 -0,3 7 4 11 6 SE 1034,7 2,9
14.02.2019 02:00:00 1,8 0,5 11 6 14 8 S 1034,5 3,8
14.02.2019 01:00:00 2,0 0,7 11 6 - - SSW 1034,9 4,1
14.02.2019 00:00:00 2,6 1,2 11 6 18 10 S 1034,9 4,4
13.02.2019 23:00:00 3,5 1,4 14 8 18 10 SSE 1034,9 6
13.02.2019 22:00:00 3,9 1,7 11 6 - - S 1035,0 7
13.02.2019 21:00:00 4,4 2,0 14 8 22 12 S 1035,0 6
13.02.2019 20:00:00 5,0 2,2 14 8 22 12 S 1035,2 9
13.02.2019 19:00:00 5,6 2,3 11 6 - - SSE 1035,2 8
13.02.2019 18:00:00 7,2 2,6 11 6 18 10 S 1034,9 10
13.02.2019 17:00:00 8,5 2,7 14 8 22 12 S 1034,9 12
13.02.2019 16:00:00 9,3 3,4 18 10 - - SSW 1035,0 12
13.02.2019 15:00:00 9,3 3,3 18 10 25 14 SSW 1034,9 20
13.02.2019 14:00:00 8,8 3,3 18 10 25 14 SSW 1035,2 13
13.02.2019 13:00:00 8,3 3,5 18 10 - - SSW 1036,0 13
13.02.2019 12:00:00 6,9 2,7 14 8 25 14 SSW 1036,4 13
13.02.2019 11:00:00 5,4 2,0 14 8 22 12 S 1036,0 13
13.02.2019 10:00:00 4,4 1,5 14 8 - - SSW 1036,2 13
13.02.2019 09:00:00 4,0 1,6 11 6 18 10 S 1035,9 11
13.02.2019 08:00:00 4,0 1,7 14 8 18 10 SSW 1035,7 11
13.02.2019 07:00:00 4,8 2,1 11 6 - - SSW 1035,7 11
13.02.2019 06:00:00 5,0 2,7 11 6 18 10 SSW 1035,5 9
13.02.2019 05:00:00 5,1 2,8 11 6 18 10 SSW 1035,5 8
13.02.2019 04:00:00 5,4 2,9 14 8 - - SSW 1035,5 11
13.02.2019 03:00:00 5,4 3,1 14 8 18 10 SSW 1035,7 10
13.02.2019 02:00:00 5,2 3,1 11 6 14 8 SSW 1035,9 11
13.02.2019 01:00:00 5,0 2,8 11 6 - - SW 1036,0 12
13.02.2019 00:00:00 4,5 2,3 11 6 18 10 SW 1035,9 12
12.02.2019 23:00:00 4,8 2,3 14 8 22 12 SSW 1035,5 15
12.02.2019 22:00:00 5,8 2,7 14 8 - - SW 1035,4 14
12.02.2019 21:00:00 5,8 2,6 11 6 22 12 SSW 1035,5 16
12.02.2019 20:00:00 6,0 2,7 11 6 14 8 SSW 1035,7 15
12.02.2019 19:00:00 6,0 2,8 11 6 - - SW 1035,2 15
12.02.2019 18:00:00 7,0 3,6 11 6 14 8 SW 1034,7 20
12.02.2019 17:00:00 8,3 3,9 11 6 25 14 SW 1034,7 20

tt = Température de l'air
td = dewpoint
ff = Vitesse du vent
fx = gusts
dd = Direction du vent
ppp = reduced air pressure
vv = visibility

stations d'obs. à proximité